DW1779 Weather Reports


time (UTC)temp
C
wind
direction
speed
KPH
gust
KPH
rain 1hr
cm
rain 24hr
cm
rain mn
cm
humidity
%
barometer
mb
20260831023540 25 167 3.2 11.3 0.00 0.00 0.00 68 1016.7
20260831023042 25 176 1.6 11.3 0.00 0.00 0.00 71 1016.7
20260831022542 24 203 3.2 12.9 0.00 0.00 0.00 72 1016.7
20260831022041 23 169 3.2 9.7 0.00 0.00 0.00 74 1016.6
20260831021542 23 76 3.2 11.3 0.00 0.00 0.00 76 1016.5
20260831021041 23 186 1.6 8.0 0.00 0.00 0.00 76 1016.4
20260831020641 23 202 1.6 8.0 0.00 0.00 0.00 77 1016.4
20260831020111 23 166 0.0 6.4 0.00 0.00 0.00 78 1016.4
20260831015554 23 134 0.0 4.8 0.00 0.00 0.00 78 1016.3
20260831015054 23 137 0.0 6.4 0.00 0.00 0.00 78 1016.2
20260831014554 23 165 0.0 9.7 0.00 0.00 0.00 76 1016.2
20260831014054 23 149 3.2 11.3 0.00 0.00 0.00 75 1016.1
20260831013557 23 153 0.0 8.0 0.00 0.00 0.00 74 1016.1
20260831013054 23 156 1.6 8.0 0.00 0.00 0.00 73 1016.0
20260831012554 24 184 1.6 8.0 0.00 0.00 0.00 73 1015.9
20260831012054 24 144 0.0 6.4 0.00 0.00 0.00 73 1016.0
20260831011604 24 182 1.6 6.4 0.00 0.00 0.00 71 1015.9
20260831011052 25 163 0.0 6.4 0.00 0.00 0.00 70 1015.8
20260831010655 25 167 0.0 6.4 0.00 0.00 0.00 70 1015.8
20260831010053 25 168 0.0 6.4 0.00 0.00 0.00 70 1015.7
20260831005556 25 159 1.6 6.4 0.00 0.00 0.00 69 1015.8
20260831005052 26 159 1.6 4.8 0.00 0.00 0.00 65 1015.7
20260831004552 27 162 1.6 8.0 0.00 0.00 0.00 63 1015.7
20260831004051 27 182 1.6 8.0 0.00 0.00 0.00 61 1015.7
20260831003552 27 152 1.6 6.4 0.00 0.00 0.00 61 1015.5
20260831003052 28 157 1.6 11.3 0.00 0.00 0.00 58 1015.6
20260831002551 28 123 3.2 14.5 0.00 0.00 0.00 56 1015.6
20260831002052 28 161 3.2 14.5 0.00 0.00 0.00 57 1015.5
20260831001552 29 163 3.2 11.3 0.00 0.00 0.00 56 1015.5
20260831001052 29 169 1.6 12.9 0.00 0.00 0.00 55 1015.5
20260831000651 30 132 1.6 16.1 0.00 0.00 0.00 54 1015.5
20260831000047 30 175 4.8 16.1 0.00 0.00 0.00 49 1015.4
20260830235546 30 170 3.2 12.9 0.00 0.00 0.00 51 1015.5
20260830235048 30 128 3.2 12.9 0.00 0.00 0.00 52 1015.6
20260830234548 30 178 3.2 9.7 0.00 0.00 0.00 52 1015.5
20260830234049 30 152 4.8 11.3 0.00 0.00 0.00 50 1015.5
20260830233546 30 139 1.6 12.9 0.00 0.00 0.00 51 1015.5
20260830233046 31 110 0.0 14.5 0.00 0.00 0.00 52 1015.6
20260830232546 31 183 4.8 14.5 0.00 0.00 0.00 47 1015.6
20260830232046 31 110 3.2 9.7 0.00 0.00 0.00 51 1015.6
20260830231546 32 207 4.8 14.5 0.00 0.00 0.00 47 1015.5
20260830231044 32 178 3.2 14.5 0.00 0.00 0.00 46 1015.5
20260830230645 32 193 3.2 16.1 0.00 0.00 0.00 45 1015.4
20260830230045 32 149 6.4 14.5 0.00 0.00 0.00 46 1015.5
20260830225545 33 161 4.8 17.7 0.00 0.00 0.00 43 1015.5
20260830225044 32 119 9.7 17.7 0.00 0.00 0.00 43 1015.5
20260830224545 33 167 9.7 17.7 0.00 0.00 0.00 43 1015.5
20260830224045 33 168 6.4 19.3 0.00 0.00 0.00 43 1015.4
20260830223544 33 190 8.0 17.7 0.00 0.00 0.00 42 1015.5
20260830223044 33 140 6.4 22.5 0.00 0.00 0.00 43 1015.5
20260830222543 33 168 6.4 17.7 0.00 0.00 0.00 43 1015.5
20260830222045 33 167 6.4 16.1 0.00 0.00 0.00 44 1015.4
20260830221547 33 196 3.2 20.9 0.00 0.00 0.00 43 1015.5
20260830221043 33 154 9.7 20.9 0.00 0.00 0.00 42 1015.5
20260830220646 33 126 8.0 19.3 0.00 0.00 0.00 42 1015.5
20260830220047 34 182 8.0 24.1 0.00 0.00 0.00 42 1015.5
20260830215541 34 164 8.0 24.1 0.00 0.00 0.00 42 1015.5
20260830215041 34 106 6.4 17.7 0.00 0.00 0.00 43 1015.5
20260830214544 33 103 6.4 17.7 0.00 0.00 0.00 43 1015.6
20260830214040 33 163 6.4 14.5 0.00 0.00 0.00 45 1015.6
20260830213538 33 167 6.4 14.5 0.00 0.00 0.00 44 1015.8
20260830213049 33 88 6.4 16.1 0.00 0.00 0.00 45 1015.8
20260830212539 33 159 6.4 17.7 0.00 0.00 0.00 48 1015.8
20260830212039 34 143 3.2 14.5 0.00 0.00 0.00 46 1015.9
20260830211552 34 183 3.2 17.7 0.00 0.00 0.00 45 1015.9
20260830211037 35 163 6.4 12.9 0.00 0.00 0.00 41 1015.9
20260830210639 35 126 3.2 11.3 0.00 0.00 0.00 41 1015.8
20260830205557 35 153 4.8 14.5 0.00 0.00 0.00 42 1015.8
20260830205101 35 159 6.4 22.5 0.00 0.00 0.00 42 1015.9
20260830204602 34 200 4.8 22.5 0.00 0.00 0.00 44 1015.8
20260830204101 35 153 3.2 17.7 0.00 0.00 0.00 46 1015.8
20260830203557 35 168 4.8 17.7 0.00 0.00 0.00 42 1015.9
20260830203102 35 115 6.4 17.7 0.00 0.00 0.00 41 1016.0
20260830202557 35 113 8.0 19.3 0.00 0.00 0.00 43 1015.9
20260830202103 35 208 9.7 20.9 0.00 0.00 0.00 41 1016.0
20260830201601 35 54 9.7 20.9 0.00 0.00 0.00 44 1016.0
20260830201055 35 151 4.8 12.9 0.00 0.00 0.00 43 1016.1
20260830200656 35 163 3.2 14.5 0.00 0.00 0.00 43 1016.1
20260830200056 35 170 4.8 14.5 0.00 0.00 0.00 41 1016.2
20260830195555 35 132 4.8 14.5 0.00 0.00 0.00 41 1016.3
20260830195056 34 169 3.2 11.3 0.00 0.00 0.00 47 1016.2
20260830194554 33 54 1.6 12.9 0.00 0.00 0.00 49 1016.3
20260830194054 34 81 3.2 16.1 0.00 0.00 0.00 44 1016.4
20260830193553 35 58 8.0 14.5 0.00 0.00 0.00 41 1016.4
20260830193054 36 177 4.8 11.3 0.00 0.00 0.00 42 1016.5
20260830192552 35 202 4.8 11.3 0.00 0.00 0.00 44 1016.5
20260830192053 35 114 3.2 12.9 0.00 0.00 0.00 45 1016.6
20260830191554 35 82 6.4 12.9 0.00 0.00 0.00 42 1016.4
20260830191050 35 210 3.2 12.9 0.00 0.00 0.00 41 1016.6
20260830190504 35 138 4.8 12.9 0.00 0.00 0.00 40 1016.7
20260830190003 35 202 4.8 12.9 0.00 0.00 0.00 41 1016.7
20260830185503 35 192 3.2 11.3 0.00 0.00 0.00 41 1016.8
20260830185001 35 71 1.6 11.3 0.00 0.00 0.00 44 1016.8
20260830184503 35 205 0.0 11.3 0.00 0.00 0.00 42 1016.9
20260830184102 34 117 1.6 11.3 0.00 0.00 0.00 45 1016.9
20260830184002 34 90 4.8 11.3 0.00 0.00 0.00 42 1017.0
20260830183600 35 193 4.8 12.9 0.00 0.00 0.00 41 1017.0
20260830183102 34 215 1.6 11.3 0.00 0.00 0.00 41 1017.1
20260830182558 35 169 0.0 11.3 0.00 0.00 0.00 43 1017.1
20260830182058 34 207 3.2 12.9 0.00 0.00 0.00 49 1017.1
20260830181559 34 186 4.8 12.9 0.00 0.00 0.00 42 1017.2
20260830181055 33 167 6.4 14.5 0.00 0.00 0.00 45 1017.3
20260830180658 34 126 4.8 16.1 0.00 0.00 0.00 45 1017.3
20260830180059 33 219 1.6 16.1 0.00 0.00 0.00 42 1017.5
20260830175558 33 201 6.4 16.1 0.00 0.00 0.00 42 1017.6
20260830175058 33 235 6.4 17.7 0.00 0.00 0.00 43 1017.6
20260830174601 33 199 3.2 17.7 0.00 0.00 0.00 48 1017.7
20260830174059 33 310 3.2 16.1 0.00 0.00 0.00 44 1017.9
20260830173557 33 159 3.2 12.9 0.00 0.00 0.00 44 1017.9
20260830173054 33 161 3.2 12.9 0.00 0.00 0.00 46 1017.9
20260830172558 33 155 4.8 14.5 0.00 0.00 0.00 43 1018.0
20260830172053 33 198 6.4 19.3 0.00 0.00 0.00 44 1018.1
20260830171553 33 206 8.0 16.1 0.00 0.00 0.00 44 1018.2
20260830171052 33 163 4.8 17.7 0.00 0.00 0.00 45 1018.3
20260830170505 33 163 6.4 19.3 0.00 0.00 0.00 43 1018.3
20260830170010 33 296 4.8 14.5 0.00 0.00 0.00 47 1018.2
20260830165502 32 159 6.4 14.5 0.00 0.00 0.00 45 1018.2
20260830165002 32 177 4.8 12.9 0.00 0.00 0.00 48 1018.3
20260830164601 32 87 8.0 12.9 0.00 0.00 0.00 46 1018.4
20260830164101 32 202 4.8 19.3 0.00 0.00 0.00 46 1018.5
20260830163559 31 211 9.7 19.3 0.00 0.00 0.00 46 1018.5
20260830163058 31 235 8.0 17.7 0.00 0.00 0.00 47 1018.5
20260830162555 31 205 8.0 17.7 0.00 0.00 0.00 47 1018.6
20260830162052 31 205 4.8 12.9 0.00 0.00 0.00 49 1018.4
20260830161605 31 153 4.8 16.1 0.00 0.00 0.00 52 1018.5
20260830161053 30 163 4.8 17.7 0.00 0.00 0.00 50 1018.7
20260830160501 30 177 4.8 24.1 0.00 0.00 0.00 52 1018.6
20260830160059 30 184 9.7 24.1 0.00 0.00 0.00 50 1018.6
20260830155558 30 189 6.4 19.3 0.00 0.00 0.00 52 1018.7
20260830155059 30 163 3.2 16.1 0.00 0.00 0.00 53 1018.7
20260830154555 30 248 3.2 22.5 0.00 0.00 0.00 52 1018.6
20260830154054 29 173 4.8 29.0 0.00 0.00 0.00 54 1018.7
20260830153553 29 236 14.5 29.0 0.00 0.00 0.00 50 1018.8
20260830153059 29 175 3.2 24.1 0.00 0.00 0.00 53 1018.8
20260830152551 29 157 8.0 24.1 0.00 0.00 0.00 51 1018.6
20260830152049 28 184 8.0 25.7 0.00 0.00 0.00 51 1018.6
20260830151551 28 173 6.4 25.7 0.00 0.00 0.00 52 1018.5
20260830151046 28 130 6.4 20.9 0.00 0.00 0.00 52 1018.5
20260830150644 28 197 8.0 20.9 0.00 0.00 0.00 50 1018.6
20260830150053 28 182 8.0 19.3 0.00 0.00 0.00 52 1018.5
20260830145550 28 119 3.2 25.7 0.00 0.00 0.00 54 1018.5
20260830145049 28 214 12.9 25.7 0.00 0.00 0.00 53 1018.6
20260830144548 27 192 4.8 24.1 0.00 0.00 0.00 53 1018.5
20260830144047 27 180 6.4 22.5 0.00 0.00 0.00 53 1018.5
20260830143546 27 157 14.5 22.5 0.00 0.00 0.00 53 1018.5
20260830143055 27 236 6.4 24.1 0.00 0.00 0.00 54 1018.5
20260830142543 27 220 4.8 17.7 0.00 0.00 0.00 55 1018.6
20260830142044 26 202 6.4 16.1 0.00 0.00 0.00 58 1018.5
20260830141540 26 178 3.2 20.9 0.00 0.00 0.00 58 1018.6
20260830141038 26 244 4.8 22.5 0.00 0.00 0.00 59 1018.6
20260830140509 25 186 4.8 12.9 0.00 0.00 0.00 62 1018.7
20260830140008 25 176 3.2 11.3 0.00 0.00 0.00 62 1018.6
20260830135507 24 225 3.2 16.1 0.00 0.00 0.00 68 1018.6
20260830135006 23 178 4.8 16.1 0.00 0.00 0.00 70 1018.7
20260830134504 22 197 6.4 16.1 0.00 0.00 0.00 75 1018.7
20260830134003 22 182 4.8 12.9 0.00 0.00 0.00 75 1018.7
20260830133502 21 194 1.6 11.3 0.00 0.00 0.00 83 1018.8
20260830133103 20 184 1.6 9.7 0.00 0.00 0.00 87 1018.9
20260830132559 19 181 1.6 11.3 0.00 0.00 0.00 89 1018.9
20260830132057 18 133 1.6 11.3 0.00 0.00 0.00 90 1018.9
20260830131556 18 155 0.0 6.4 0.00 0.00 0.00 91 1018.9
20260830131056 18 159 1.6 4.8 0.00 0.00 0.00 92 1018.9
20260830130655 17 152 0.0 3.2 0.00 0.00 0.00 92 1019.1
20260830130112 17 169 0.0 3.2 0.00 0.00 0.00 92 1019.1
20260830125557 17 166 0.0 3.2 0.00 0.00 0.00 92 1019.2
20260830125057 17 162 0.0 4.8 0.00 0.00 0.00 92 1019.2
20260830124556 16 162 0.0 4.8 0.00 0.00 0.00 92 1019.2
20260830124102 16 136 0.0 1.6 0.00 0.00 0.00 93 1019.2
20260830123556 16 136 0.0 1.6 0.00 0.00 0.00 93 1019.1
20260830123055 16 136 0.0 3.2 0.00 0.00 0.00 93 1019.1
20260830122554 16 142 0.0 3.2 0.00 0.00 0.00 92 1019.1
20260830122055 16 154 0.0 1.6 0.00 0.00 0.00 92 1019.1
20260830121553 16 133 0.0 1.6 0.00 0.00 0.00 92 1019.0
20260830121052 16 120 0.0 1.6 0.00 0.00 0.00 92 1019.1
20260830120521 16 119 0.0 1.6 0.00 0.00 0.00 91 1019.0
20260830120021 16 163 0.0 1.6 0.00 0.00 0.00 91 1018.9
20260830115521 16 163 0.0 1.6 0.00 0.00 0.00 92 1018.9
20260830115020 16 163 0.0 3.2 0.00 0.00 0.00 92 1018.8
20260830114526 16 163 0.0 3.2 0.00 0.00 0.00 92 1018.8
20260830114016 16 145 0.0 3.2 0.00 0.00 0.00 92 1018.6
20260830113551 16 176 0.0 3.2 0.00 0.00 0.00 92 1018.3
20260830113051 16 156 1.6 3.2 0.00 0.00 0.00 91 1018.3
20260830112548 16 167 0.0 1.6 0.00 0.00 0.00 91 1018.3
20260830112050 16 167 0.0 3.2 0.00 0.00 0.00 91 1018.3
20260830111548 16 184 0.0 4.8 0.00 0.00 0.00 91 1018.2
20260830111047 16 140 0.0 6.4 0.00 0.00 0.00 91 1018.2
20260830110646 16 153 0.0 6.4 0.00 0.00 0.00 91 1018.3
20260830110049 16 185 1.6 4.8 0.00 0.00 0.00 90 1018.1
20260830105549 16 164 0.0 4.8 0.00 0.03 0.00 90 1018.2
20260830105047 16 165 0.0 4.8 0.00 0.03 0.00 90 1018.2
20260830104547 17 151 1.6 3.2 0.00 0.03 0.00 89 1018.2
20260830104047 17 190 0.0 6.4 0.00 0.03 0.00 89 1018.2
20260830103551 17 190 1.6 6.4 0.00 0.03 0.00 89 1018.2
20260830103049 17 178 0.0 8.0 0.00 0.03 0.00 90 1018.2
20260830102545 17 173 1.6 8.0 0.00 0.03 0.00 90 1018.1
20260830102049 17 173 1.6 8.0 0.00 0.03 0.00 90 1018.1
20260830101552 17 90 1.6 8.0 0.00 0.03 0.00 90 1018.0
20260830101045 17 153 0.0 6.4 0.00 0.03 0.00 90 1018.0
20260830100644 17 169 0.0 8.0 0.00 0.03 0.00 90 1017.9
20260830100048 17 117 0.0 8.0 0.00 0.03 0.00 90 1017.9
20260830095547 17 153 3.2 9.7 0.00 0.03 0.00 90 1017.9
20260830095044 17 193 1.6 9.7 0.00 0.03 0.00 90 1017.9
20260830094546 17 148 3.2 6.4 0.00 0.03 0.00 90 1017.8
20260830094048 17 130 1.6 9.7 0.00 0.03 0.00 90 1017.9
20260830093544 17 135 3.2 9.7 0.00 0.03 0.00 90 1017.9
20260830093043 17 142 1.6 9.7 0.00 0.03 0.00 91 1018.0
20260830092643 17 198 1.6 9.7 0.00 0.03 0.00 91 1018.0
20260830092043 17 148 3.2 11.3 0.00 0.03 0.00 91 1017.9
20260830091544 17 165 3.2 8.0 0.00 0.03 0.00 91 1017.9
20260830091043 17 142 1.6 8.0 0.00 0.03 0.00 91 1018.0
20260830090642 17 122 1.6 6.4 0.00 0.03 0.00 90 1018.0
20260830090052 17 138 1.6 4.8 0.00 0.03 0.00 90 1018.0
20260830085544 17 149 1.6 6.4 0.00 0.03 0.00 90 1018.0
20260830085047 17 140 1.6 8.0 0.00 0.03 0.00 90 1018.0
20260830084544 17 144 1.6 8.0 0.00 0.03 0.00 89 1017.9
20260830084044 17 126 1.6 4.8 0.00 0.03 0.00 89 1018.0
20260830083544 17 174 0.0 6.4 0.00 0.03 0.00 89 1017.9
20260830083053 18 156 1.6 6.4 0.00 0.03 0.00 88 1017.8
20260830082544 17 123 3.2 6.4 0.00 0.03 0.00 88 1017.9
20260830082043 18 150 3.2 8.0 0.00 0.03 0.00 88 1017.9
20260830081543 18 150 1.6 8.0 0.00 0.03 0.00 88 1018.0
20260830081046 18 134 3.2 8.0 0.00 0.03 0.00 87 1018.1
20260830080644 18 140 1.6 8.0 0.00 0.03 0.00 87 1018.0
20260830080042 18 153 3.2 8.0 0.00 0.03 0.00 88 1018.2
20260830075541 18 146 3.2 8.0 0.00 0.03 0.00 90 1018.1
20260830075044 17 169 3.2 8.0 0.00 0.03 0.00 91 1018.2
20260830074551 17 137 3.2 8.0 0.00 0.03 0.00 92 1018.2
20260830074040 17 148 1.6 8.0 0.00 0.03 0.00 92 1018.2
20260830073540 17 163 3.2 8.0 0.00 0.03 0.00 92 1018.3
20260830073040 17 163 1.6 8.0 0.00 0.03 0.00 92 1018.3
20260830072539 17 124 1.6 4.8 0.00 0.03 0.00 92 1018.3
20260830072039 17 149 0.0 8.0 0.00 0.03 0.00 91 1018.3
20260830071546 17 165 1.6 8.0 0.00 0.03 0.00 91 1018.3
20260830071039 17 169 1.6 6.4 0.00 0.03 0.00 91 1018.3
20260830070637 17 128 0.0 6.4 0.00 0.03 0.00 91 1018.2
20260830070058 17 147 1.6 4.8 0.00 0.03 0.00 92 1018.3
20260830065557 17 178 1.6 8.0 0.00 0.03 0.00 91 1018.3
20260830065057 17 135 1.6 8.0 0.00 0.03 0.00 91 1018.2
20260830064559 17 159 1.6 6.4 0.00 0.03 0.00 91 1018.2
20260830064057 17 157 1.6 8.0 0.00 0.03 0.00 91 1018.4
20260830063557 17 128 0.0 8.0 0.00 0.03 0.00 91 1018.4
20260830063107 17 166 1.6 6.4 0.00 0.03 0.00 91 1018.4
20260830062559 17 150 1.6 4.8 0.00 0.03 0.00 91 1018.4
20260830062055 18 135 1.6 4.8 0.00 0.03 0.00 91 1018.4
20260830061555 18 169 0.0 4.8 0.00 0.03 0.00 91 1018.5
20260830061055 18 145 0.0 4.8 0.00 0.03 0.00 91 1018.5
20260830060655 18 132 0.0 8.0 0.00 0.03 0.00 91 1018.5
20260830060058 18 146 1.6 8.0 0.00 0.03 0.00 92 1018.5
20260830055558 17 144 1.6 8.0 0.00 0.03 0.00 92 1018.4
20260830055057 17 180 1.6 8.0 0.00 0.03 0.00 92 1018.4
20260830054556 17 157 1.6 4.8 0.00 0.03 0.00 92 1018.4
20260830054157 17 128 1.6 4.8 0.00 0.03 0.00 92 1018.5
20260830053556 18 182 1.6 6.4 0.00 0.03 0.00 92 1018.5
20260830053104 18 117 1.6 6.4 0.00 0.03 0.00 92 1018.6
20260830052556 18 159 1.6 6.4 0.00 0.03 0.00 92 1018.6
20260830052055 18 198 1.6 6.4 0.00 0.03 0.00 92 1018.5
20260830051600 18 141 1.6 4.8 0.00 0.03 0.00 91 1018.6
20260830051053 18 194 0.0 3.2 0.00 0.03 0.00 91 1018.6
20260830050650 18 160 0.0 3.2 0.00 0.03 0.00 91 1018.6
20260830050056 18 184 0.0 4.8 0.00 0.03 0.00 91 1018.6
20260830045548 18 176 0.0 4.8 0.00 0.03 0.03 91 1018.6
20260830045051 18 150 0.0 4.8 0.00 0.03 0.03 90 1018.6
20260830044557 18 153 0.0 3.2 0.00 0.03 0.03 89 1018.6
20260830044047 18 184 0.0 3.2 0.00 0.03 0.03 89 1018.6
20260830043547 18 186 0.0 1.6 0.00 0.03 0.03 89 1018.6
20260830043053 18 170 0.0 4.8 0.00 0.03 0.03 88 1018.6
20260830042547 18 186 0.0 4.8 0.00 0.03 0.03 88 1018.6
20260830042047 18 214 0.0 3.2 0.00 0.03 0.03 88 1018.5
20260830041555 18 187 0.0 3.2 0.00 0.03 0.03 89 1018.5
20260830041047 18 185 0.0 3.2 0.00 0.03 0.03 89 1018.6
20260830040647 19 182 0.0 4.8 0.00 0.03 0.03 89 1018.6
20260830040115 19 165 1.6 4.8 0.00 0.03 0.03 88 1018.6
20260830035558 19 185 0.0 3.2 0.00 0.03 0.03 89 1018.6
20260830035058 19 185 0.0 4.8 0.00 0.03 0.03 88 1018.5
20260830034558 19 214 0.0 4.8 0.00 0.03 0.03 88 1018.7
20260830034059 20 195 0.0 4.8 0.00 0.03 0.03 88 1018.5
20260830033558 20 180 1.6 6.4 0.00 0.03 0.03 88 1018.6
20260830033114 20 194 0.0 6.4 0.00 0.03 0.03 88 1018.6
20260830032558 20 157 0.0 4.8 0.00 0.03 0.03 88 1018.6
20260830032200 20 178 0.0 4.8 0.00 0.03 0.03 87 1018.5
20260830031557 20 180 1.6 4.8 0.00 0.03 0.03 86 1018.6
20260830031058 20 146 0.0 4.8 0.00 0.03 0.03 84 1018.5
20260830030656 21 189 0.0 4.8 0.00 0.03 0.03 84 1018.4
20260830030054 21 151 0.0 4.8 0.00 0.03 0.03 83 1018.4
20260830025553 21 175 0.0 8.0 0.00 0.03 0.03 83 1018.3
20260830025054 21 169 1.6 8.0 0.00 0.03 0.03 83 1018.3
20260830024553 21 183 0.0 9.7 0.00 0.03 0.03 84 1018.2
20260830024053 21 150 1.6 9.7 0.00 0.03 0.03 83 1018.2